Theta_e
293 293 292 292 292 291 292 292 292 292 292 292 292 292 292 292 293 290 286 288 283 278 277 279 279 274 272 271 264 266 268 266 264 265 269 265 262 265 264 271 271 272 272 273 275 272 269 276 275 274 274 276 275 274
292 292 292 291 291 291 292 292 291 291 291 291 291 291 291 291 292 292 284 287 288 281 278 282 283 282 281 278 275 267 269 265 270 264 270 269 265 268 266 261 275 271 270 271 270 271 276 277 276 277 277 276 274 273
292 292 291 291 291 291 291 291 291 291 290 290 291 291 291 291 292 292 283 286 285 280 274 277 276 282 284 284 284 268 267 276 270 274 268 272 269 271 265 268 269 275 277 271 271 275 275 274 274 274 275 274 273 272
291 291 291 291 291 291 291 290 291 290 290 290 290 290 290 291 292 292 282 285 283 276 266 269 282 280 284 285 284 283 280 279 274 271 274 273 270 276 270 272 271 272 273 271 273 275 272 270 270 270 271 271 270 270
291 291 291 291 291 290 290 290 290 290 290 290 290 290 291 291 292 288 283 286 286 275 265 266 277 280 280 281 281 281 279 271 276 273 272 270 273 273 271 270 267 270 267 269 268 268 270 270 268 268 267 267 267 266
290 291 290 290 290 290 290 290 290 289 289 290 290 290 291 291 291 279 270 281 286 284 276 270 275 273 277 278 280 280 278 280 274 271 274 274 278 275 268 261 268 266 264 263 263 262 265 267 268 265 264 265 265 264
290 290 290 290 290 290 289 290 289 288 289 289 290 290 290 291 283 273 275 282 287 287 267 265 265 272 273 273 270 267 270 272 271 271 272 272 273 275 267 265 263 260 261 260 260 261 265 263 262 262 263 262 262 261
290 290 290 289 289 289 289 289 288 288 288 289 289 288 290 287 283 274 282 284 285 275 267 259 261 264 269 264 263 263 264 261 262 263 260 262 263 259 259 258 259 259 260 261 259 258 257 260 260 260 260 259 257 259
290 289 289 289 289 289 289 287 288 288 288 288 287 286 280 274 267 270 287 283 276 270 264 257 251 255 266 262 264 265 262 260 259 259 258 261 252 257 252 256 256 256 256 256 257 257 257 256 257 257 256 255 254 256
290 289 289 289 288 288 288 287 287 287 287 285 276 267 263 266 284 279 267 262 262 260 261 254 257 256 265 262 261 262 260 259 257 260 262 257 250 253 255 254 254 255 256 255 251 253 252 253 254 254 254 255 255 255
289 289 289 288 288 287 286 287 287 286 281 268 263 260 270 278 266 258 256 256 252 253 250 249 253 253 261 257 254 263 258 258 253 257 257 249 252 250 252 252 256 256 255 253 254 255 254 252 252 252 252 253 253 253
290 289 288 288 287 286 286 286 286 278 275 273 276 272 263 258 256 257 247 251 250 251 248 248 251 254 253 258 252 255 254 254 253 251 253 250 253 252 250 250 250 252 251 251 250 250 251 251 251 251 250 250 250 251
290 290 288 288 285 284 285 285 284 282 276 264 259 255 257 254 254 252 249 251 249 244 244 246 248 249 251 254 246 250 251 253 250 251 252 250 250 250 249 249 250 251 250 249 250 250 249 249 249 247 249 249 249 249
290 290 288 285 283 284 284 284 281 274 261 257 255 256 253 250 247 248 249 248 250 248 246 248 242 246 243 248 246 248 250 249 248 247 251 248 249 250 250 247 244 252 253 251 251 251 250 250 250 249 248 249 248 247
290 289 285 281 283 284 283 281 275 260 255 255 254 255 249 247 242 241 240 244 246 248 249 245 244 250 243 245 244 246 248 247 250 252 248 251 251 250 251 251 251 251 251 252 253 252 252 252 251 250 250 250 250 249
289 284 277 281 283 282 279 270 258 252 248 250 246 248 242 246 244 241 239 242 243 248 247 245 241 243 243 243 246 247 246 249 252 244 249 248 248 251 251 253 253 254 253 253 254 254 254 254 252 251 251 250 250 249
284 273 279 282 281 276 272 256 253 248 250 248 248 238 243 243 249 244 243 245 248 245 244 239 245 248 245 242 243 245 249 249 249 249 247 247 250 251 253 253 253 252 253 253 254 254 253 253 252 251 248 249 249 250
277 274 279 278 273 265 253 251 249 250 250 241 249 245 240 242 243 240 240 243 245 240 240 244 243 242 244 244 248 249 248 246 244 248 251 251 249 249 248 249 251 252 253 253 253 252 251 250 250 250 251 251 251 251
277 275 276 274 268 254 253 252 251 253 250 242 243 242 242 241 240 241 242 241 239 239 243 239 239 243 248 247 250 249 245 244 250 252 249 249 249 249 251 251 252 253 253 252 252 251 251 251 251 251 251 252 251 252
279 276 273 273 267 255 253 251 249 250 250 249 247 245 245 242 240 237 236 236 239 239 240 241 245 247 249 250 250 250 248 247 244 249 254 251 248 249 253 253 252 253 253 252 252 252 251 251 252 253 252 252 252 252
271 269 269 260 252 251 250 247 247 246 247 250 245 246 243 239 240 240 239 234 239 241 243 247 246 248 244 244 244 244 246 246 248 251 253 252 254 253 252 253 253 252 251 251 251 251 251 251 252 253 252 253 253 254
263 270 257 258 252 249 249 244 248 246 248 246 247 245 243 242 240 238 237 239 241 246 246 246 244 244 244 246 249 245 246 244 244 248 252 252 250 252 251 252 252 251 251 251 251 251 251 252 253 253 253 253 254 255
266 260 251 250 253 250 249 245 249 247 249 247 244 247 247 244 239 238 240 243 245 246 246 245 244 241 244 242 240 242 242 243 243 247 250 251 252 253 252 251 252 251 250 251 252 252 252 253 253 253 254 254 253 253
262 253 254 251 250 250 245 247 247 248 248 249 248 249 247 245 240 238 244 246 248 240 242 245 242 244 242 241 243 243 244 243 243 243 245 247 247 250 249 251 251 251 252 252 252 251 251 252 253 253 253 252 252 252
259 255 253 253 246 250 251 248 248 249 253 249 250 249 246 242 247 242 245 250 246 246 245 241 242 246 249 244 241 242 241 244 245 244 245 243 244 247 250 250 251 250 250 250 249 250 250 252 253 253 252 252 251 251
255 250 251 253 249 253 254 252 250 254 253 250 249 244 243 246 247 250 250 251 251 250 247 250 251 244 242 246 245 243 245 240 242 242 244 242 243 245 244 246 248 249 250 251 249 250 250 252 253 252 252 252 252 252
251 251 246 243 247 251 250 248 249 252 253 254 249 245 248 251 252 255 254 252 253 253 251 250 254 254 251 246 243 242 240 242 246 245 242 240 243 245 247 246 247 248 250 251 250 250 250 252 253 253 252 253 253 252
248 246 251 251 249 250 253 253 253 253 256 252 250 249 252 255 260 259 256 255 250 249 247 244 244 247 248 246 243 241 240 236 237 238 238 239 238 241 244 244 246 253 249 249 250 250 254 253 253 253 253 252 253 254
250 248 248 250 250 250 252 255 257 256 254 253 254 256 257 258 257 256 255 252 248 252 251 250 249 242 243 241 239 238 239 243 246 245 242 241 240 245 239 239 239 240 241 244 249 255 258 255 254 252 253 253 254 254
248 246 248 253 254 257 254 251 252 248 248 247 246 248 251 252 253 252 251 251 251 252 254 252 249 248 248 247 247 246 240 242 245 247 245 242 243 241 236 237 238 240 240 240 243 245 253 249 251 250 253 253 253 253
246 247 248 251 253 254 249 246 245 244 245 245 244 244 247 247 248 249 249 249 249 250 250 251 249 246 246 244 245 244 250 243 243 244 241 239 237 236 237 239 238 237 236 237 238 240 243 243 242 244 246 248 250 251
248 250 249 252 256 251 248 248 248 247 246 245 247 244 246 247 249 253 250 250 251 251 251 250 249 250 249 247 245 245 248 245 245 245 244 242 241 241 239 239 239 236 238 241 241 241 241 241 241 242 242 243 244 244
249 249 249 249 252 253 250 249 251 249 247 249 250 248 248 247 249 253 251 249 249 248 249 249 250 250 249 248 247 247 248 244 244 252 250 250 247 246 244 241 238 238 241 241 242 242 242 241 240 240 240 240 240 241
Wind_Speed
23 23 23 24 24 22 25 26 26 26 27 28 28 29 29 30 32 17 7 8 4 5 11 8 8 5 0 2 6 6 6 5 4 2 2 3 2 5 0 8 9 7 5 6 10 13 16 10 4 4 3 4 3 7
24 23 23 24 25 23 25 26 27 26 26 28 30 30 29 29 32 25 8 5 9 9 7 8 16 12 11 9 5 2 7 5 4 1 2 1 5 2 2 5 5 6 1 1 3 3 4 7 11 6 2 2 2 1
25 23 24 24 25 25 25 25 26 26 27 30 31 29 29 27 30 23 4 12 5 5 3 2 6 9 8 12 9 3 3 5 4 5 3 4 5 1 3 3 1 1 3 1 4 4 5 9 7 7 4 4 5 5
25 23 23 24 25 25 26 26 27 27 29 31 30 28 27 28 28 18 3 7 3 3 4 6 3 4 5 9 12 14 10 2 2 3 6 5 3 5 4 4 4 5 3 2 3 3 7 4 5 3 3 3 7 9
25 24 24 25 25 26 26 26 26 26 29 31 31 31 30 27 25 7 2 3 6 4 3 3 4 5 6 1 7 6 7 3 6 5 5 7 3 2 2 2 3 3 2 3 3 5 5 6 4 5 6 8 9 10
24 24 25 25 25 26 26 26 27 26 29 31 32 31 28 24 16 4 5 3 9 4 2 2 3 6 7 7 2 5 4 4 3 1 2 1 3 2 3 3 3 5 5 3 1 4 5 9 3 9 7 9 11 12
23 24 24 25 25 26 26 26 26 27 30 32 32 30 25 15 4 4 2 9 15 0 4 4 5 6 6 4 4 4 4 2 2 2 2 2 2 2 2 2 3 8 7 4 7 8 3 5 4 11 8 9 9 11
21 23 24 24 25 25 26 25 26 28 30 32 33 26 15 9 6 3 3 14 6 4 5 3 5 5 7 4 4 1 3 3 4 2 3 1 3 2 2 3 4 5 6 5 6 1 5 9 8 8 7 8 9 9
21 22 24 24 24 25 25 24 26 28 30 32 28 16 4 6 4 4 17 10 5 6 4 4 3 5 6 3 2 4 3 3 2 1 3 4 2 4 2 1 2 4 3 7 10 9 4 4 8 7 5 5 8 12
20 22 23 24 23 24 23 23 26 28 29 22 7 6 5 3 18 8 9 7 8 6 7 3 2 3 5 4 4 4 2 1 1 5 2 3 3 2 0 2 3 5 6 6 6 7 7 8 10 11 12 11 10 11
19 20 23 23 23 22 20 24 24 24 12 6 5 2 5 13 5 6 5 6 5 6 4 3 1 2 5 3 3 3 2 2 2 6 3 3 5 3 5 5 4 4 5 6 7 10 9 11 13 14 14 13 12 13
20 18 21 23 24 19 20 22 22 6 1 5 7 5 5 7 5 8 1 5 6 3 4 1 3 2 5 3 3 4 2 3 6 1 5 5 3 4 5 7 8 7 7 9 7 11 11 11 11 12 13 13 13 14
19 17 18 22 19 15 21 20 19 17 8 4 6 6 5 5 7 6 3 6 3 1 3 4 4 1 6 4 2 3 2 6 2 3 5 5 3 4 7 6 9 9 8 7 10 10 11 12 10 10 14 13 13 13
19 16 17 14 10 20 20 17 17 8 5 5 4 4 4 5 4 6 5 5 3 3 0 1 2 1 2 4 0 2 5 3 4 2 7 3 6 6 6 4 1 12 11 10 12 14 13 13 12 11 11 12 12 14
19 14 10 7 13 19 17 15 8 4 5 3 5 4 5 2 0 2 2 2 2 1 2 3 3 1 3 2 1 2 6 5 7 7 4 4 6 6 7 7 8 8 9 10 12 12 13 12 12 13 13 13 13 14
15 7 4 6 15 15 12 5 4 4 5 5 4 4 1 3 4 2 1 2 2 2 3 3 2 4 4 3 2 8 5 8 5 4 5 2 5 7 8 9 10 10 12 13 12 13 13 13 13 14 14 13 14 14
3 4 4 11 11 8 10 4 4 7 5 4 3 0 3 2 4 4 4 4 2 4 2 4 2 9 1 2 5 6 7 4 5 5 4 5 8 9 8 11 10 10 12 12 13 12 12 11 11 12 14 15 13 13
6 3 4 4 5 5 4 4 5 4 2 3 3 4 2 1 4 1 3 3 4 3 3 5 3 2 6 6 6 6 5 4 4 4 5 6 6 7 6 8 10 11 12 12 11 11 11 11 11 10 12 12 12 12
5 4 3 4 5 6 3 3 3 4 3 2 1 0 2 1 1 1 2 2 3 3 5 3 2 6 7 6 5 4 4 4 5 5 4 6 6 7 8 8 9 10 11 11 11 8 9 12 11 10 10 10 9 10
11 8 9 6 5 4 2 3 1 4 3 2 2 2 3 2 1 3 2 2 3 4 3 5 9 6 6 5 5 4 4 3 1 5 8 3 3 3 6 8 7 10 9 10 9 11 8 9 8 8 8 10 11 11
7 4 7 4 4 6 3 1 2 1 3 2 1 2 2 2 2 3 2 1 3 5 6 8 6 5 4 4 2 2 3 4 4 4 6 8 6 7 7 6 7 7 7 8 8 9 9 9 9 9 10 10 10 10
3 10 3 3 5 3 4 1 1 1 1 1 2 0 3 2 2 2 3 1 7 7 7 6 4 4 3 5 5 5 4 3 3 3 7 7 5 6 6 6 7 7 7 8 8 9 10 9 9 10 10 10 11 9
9 4 4 3 3 2 1 1 2 1 2 2 0 1 2 2 3 0 3 6 7 7 5 5 5 4 4 3 3 3 4 5 3 4 4 4 4 5 6 6 5 6 7 8 7 8 9 13 11 11 9 9 9 9
5 4 5 4 3 4 0 2 1 3 2 3 3 4 3 3 2 2 6 5 6 2 3 6 4 1 2 1 2 4 4 4 3 3 3 2 3 4 3 5 5 5 5 7 8 8 9 9 12 8 9 9 10 9
4 5 4 5 1 4 5 3 3 3 4 5 3 4 3 3 3 4 6 6 3 4 3 2 2 4 4 3 3 4 3 4 4 3 4 3 2 2 4 3 5 4 2 5 7 9 9 9 8 9 9 9 11 12
5 2 5 4 2 4 5 5 6 7 3 4 4 3 2 2 3 8 6 5 5 5 6 8 7 4 4 6 4 2 4 4 5 2 4 4 4 3 3 4 7 6 1 5 7 9 11 10 9 10 9 10 12 11
5 4 1 0 2 1 0 1 1 2 6 6 5 6 4 5 8 7 3 4 4 4 4 4 5 5 4 3 3 3 4 5 5 4 2 3 3 4 4 3 5 5 7 9 8 8 9 8 8 9 9 8 8 9
3 1 2 1 3 2 3 3 5 7 4 4 6 7 7 9 5 2 3 1 1 1 2 1 2 2 3 3 2 2 2 2 1 3 2 2 2 2 3 1 3 8 6 7 8 8 7 3 5 6 7 7 7 8
3 4 3 5 3 4 5 5 3 1 2 4 4 5 5 3 3 2 2 2 1 1 2 2 2 2 2 2 1 1 1 4 5 4 2 4 5 4 2 3 3 3 3 5 11 10 6 2 1 3 5 5 5 5
1 1 2 4 4 4 2 2 2 2 2 2 3 6 4 4 3 1 2 2 1 4 3 1 2 3 3 3 3 4 4 4 4 6 6 4 5 3 3 4 4 4 3 3 5 6 7 5 5 5 5 5 5 6
2 2 3 4 5 1 1 1 1 1 1 1 1 3 5 7 6 2 1 3 4 2 1 3 2 3 4 4 4 2 3 3 6 7 4 4 4 3 3 3 3 3 3 3 2 2 3 4 4 5 6 7 8 7
2 2 3 5 4 1 1 2 2 2 1 1 2 3 3 2 4 3 1 4 1 5 3 3 1 4 5 3 3 2 2 1 4 5 8 4 4 5 3 2 1 2 4 2 2 2 3 4 4 4 4 6 6 7
3 3 4 4 4 3 4 5 2 3 2 3 1 1 2 1 6 4 1 1 1 1 2 2 4 4 5 6 4 3 4 2 3 6 7 6 6 5 4 4 3 1 2 2 1 2 4 4 3 3 3 4 4 4
Wind_Direction
338 338 338 338 335 332 326 329 329 330 330 328 328 326 330 329 329 332 295 181 206 260 240 209 203 190 223 180 147 249 20 334 2 152 221 282 199 249 121 258 252 263 292 231 231 225 239 342 22 38 43 103 37 355
338 337 337 336 335 333 331 328 330 331 331 323 328 325 327 327 323 329 293 217 213 220 228 194 216 211 204 189 156 239 200 188 228 70 213 103 335 306 201 275 352 259 307 5 44 327 53 24 98 96 51 127 113 330
337 337 337 334 334 334 330 333 333 330 330 331 328 327 324 324 321 329 295 304 269 160 49 87 215 228 236 230 204 178 289 193 255 176 222 232 242 174 214 248 242 284 126 114 351 119 148 133 100 66 13 1 348 345
336 335 333 333 334 332 331 334 335 328 332 332 333 334 330 325 321 343 337 331 355 32 109 282 355 206 232 218 201 213 239 356 104 93 266 256 249 209 201 220 188 190 134 216 218 141 94 59 78 31 345 353 333 328
335 334 333 334 334 333 332 332 331 336 331 334 336 335 328 322 323 344 216 357 342 133 194 279 257 353 9 176 198 218 235 192 258 239 221 240 218 222 314 34 259 31 185 173 228 27 341 89 93 20 352 344 342 340
335 335 334 333 333 334 332 332 333 333 330 330 332 332 328 324 344 33 9 295 8 354 27 341 328 6 345 344 183 207 208 232 239 264 304 285 143 230 188 203 97 73 59 28 25 341 274 297 130 30 345 334 335 326
334 333 332 333 334 333 331 334 335 332 328 328 331 331 328 345 17 98 59 322 325 349 72 346 346 347 330 354 348 1 2 248 195 252 253 215 230 176 86 208 52 19 4 46 31 345 169 67 318 326 328 327 324 307
328 332 332 334 334 332 333 338 333 332 329 328 328 328 328 5 43 29 352 353 347 84 64 55 303 12 5 319 337 331 347 19 338 216 2 170 353 55 235 53 22 2 311 140 16 334 245 285 290 300 313 315 307 300
325 332 333 333 333 330 336 336 333 331 331 329 325 323 29 34 23 271 325 43 44 79 95 76 95 276 346 287 264 331 67 346 264 100 241 95 300 212 175 346 334 358 2 304 313 302 300 283 293 291 275 267 276 296
329 330 333 332 332 331 339 332 333 335 336 333 9 32 356 269 313 349 4 21 18 354 22 81 310 281 353 331 300 353 31 243 314 256 343 74 259 346 5 231 266 306 314 335 336 333 331 311 314 310 306 302 292 288
323 326 329 330 331 335 333 333 337 348 3 19 21 336 251 334 41 31 32 57 328 20 6 275 63 312 335 21 288 339 287 314 18 269 119 310 290 232 239 239 250 257 263 254 241 266 273 273 288 294 296 294 294 291
309 319 328 330 330 337 325 337 342 9 261 247 291 357 1 27 26 74 318 330 53 219 320 12 294 306 296 353 49 321 238 35 243 310 62 287 259 240 220 244 256 254 255 261 246 260 267 265 267 275 283 285 279 278
310 312 324 337 337 330 327 334 341 336 345 32 45 40 35 315 31 91 294 309 337 273 304 354 321 357 334 27 344 20 29 232 20 42 231 233 260 267 250 263 273 258 258 257 269 259 260 262 259 253 273 274 276 275
306 310 322 336 310 332 323 343 343 352 63 80 92 313 107 310 247 181 187 194 240 109 93 155 288 20 285 1 254 49 249 49 9 351 239 237 227 246 258 249 274 282 279 267 263 266 265 266 269 263 257 267 271 272
302 300 323 266 309 328 333 349 1 45 86 124 84 235 214 236 268 231 212 50 280 132 69 13 7 55 310 353 51 348 353 267 208 230 228 231 238 252 267 264 265 278 276 275 276 272 267 264 267 272 272 272 269 270
305 316 235 279 325 331 354 30 39 78 51 91 62 87 298 56 294 340 160 232 227 100 58 59 95 43 279 158 47 226 129 231 249 220 233 256 264 263 270 278 279 285 284 285 287 288 289 289 279 277 277 275 276 272
110 222 221 327 335 32 30 73 56 43 129 94 250 73 126 91 172 184 141 199 158 87 195 112 109 222 89 0 269 198 216 226 219 256 241 227 257 275 282 290 290 284 286 287 294 296 293 292 290 285 279 280 271 267
206 189 335 350 33 60 30 46 83 90 196 220 148 209 203 143 132 222 207 159 110 125 115 217 121 128 207 199 251 241 243 258 233 249 260 267 263 268 254 266 288 291 296 298 299 298 295 291 289 285 285 288 290 286
176 149 113 65 110 93 72 354 66 203 202 175 207 112 116 175 254 16 90 91 113 133 106 51 116 214 230 213 224 246 245 215 273 297 264 264 251 264 282 286 286 297 301 301 300 296 293 287 284 288 287 289 287 289
131 116 95 81 112 88 16 305 47 119 180 182 115 139 132 158 147 79 52 20 94 100 73 212 221 217 202 222 198 211 205 183 121 308 305 293 269 268 295 306 301 304 305 306 301 298 296 294 292 293 293 293 293 293
101 147 99 75 54 64 90 130 34 165 136 156 127 146 129 27 70 126 182 300 44 208 229 219 232 245 229 244 220 186 217 158 201 201 285 305 321 320 308 306 307 307 303 305 306 306 308 301 303 302 299 297 294 293
159 135 89 18 83 39 79 4 68 130 79 85 138 232 121 151 203 219 136 96 236 231 203 190 215 216 222 252 239 197 216 181 236 259 267 276 292 312 314 311 315 311 307 303 302 302 304 305 309 309 305 301 303 305
111 90 53 63 85 104 208 229 133 89 162 186 34 196 171 192 192 234 239 223 257 234 204 196 211 193 219 290 334 276 214 187 237 233 244 252 271 288 292 298 301 303 306 307 308 306 308 314 310 312 317 320 320 318
59 90 169 199 159 196 69 164 144 137 148 168 201 231 183 168 141 76 249 242 244 294 207 209 162 160 341 350 262 247 235 177 223 289 250 232 273 285 261 295 296 287 284 296 306 307 310 312 317 330 332 333 331 330
109 246 141 220 357 131 190 177 186 194 213 157 189 224 173 168 204 228 244 260 243 241 227 166 167 190 190 234 266 259 241 164 179 238 267 189 243 296 300 277 287 270 274 319 317 317 317 322 335 340 342 341 338 341
227 226 179 214 179 196 183 182 201 203 167 152 195 96 184 152 219 236 229 213 215 205 186 190 186 166 251 209 210 232 245 174 125 147 269 190 177 179 260 309 325 316 333 328 309 314 318 324 337 342 344 346 352 352
253 293 322 166 319 77 150 354 357 229 183 184 163 164 174 220 234 240 251 208 200 220 206 161 162 168 185 202 248 231 171 173 180 193 194 206 224 204 189 213 293 280 314 314 309 303 302 318 336 340 345 350 359 359
253 253 263 127 236 211 259 215 210 208 182 146 134 187 204 210 234 229 214 354 185 104 90 71 75 128 146 194 201 143 136 139 292 303 334 336 280 222 145 240 253 310 309 299 300 292 293 286 325 334 344 351 356 2
355 2 308 263 248 226 231 229 232 165 93 177 210 224 237 250 330 317 16 28 32 296 125 148 243 67 46 19 46 270 204 142 109 69 26 288 328 293 258 313 295 292 290 313 315 325 324 337 208 345 340 342 335 357
354 354 270 266 262 267 38 340 342 12 357 339 318 294 271 257 264 332 316 287 242 232 242 202 122 157 192 141 298 293 235 227 189 150 157 197 219 251 299 303 311 307 313 329 318 319 349 22 3 8 17 20 15 22
322 288 267 242 268 287 330 341 213 261 274 286 53 264 291 312 312 291 3 285 265 233 227 248 246 223 194 175 169 215 279 217 222 217 177 152 160 205 258 284 284 303 313 313 329 4 26 32 38 38 35 36 26 30
278 285 310 290 283 92 200 344 329 334 347 286 236 233 270 326 289 274 238 277 330 54 19 309 274 280 243 227 176 173 318 182 180 199 195 194 189 185 183 219 311 324 311 339 36 84 85 84 65 58 64 53 45 38
260 224 240 270 285 309 10 332 272 280 235 258 269 31 17 313 267 305 349 268 320 267 71 352 309 306 298 270 203 185 181 225 236 196 188 199 189 182 161 141 122 82 314 324 360 94 98 106 88 74 66 68 60 49